Location: Brussels
(27.1416°S, 24.7489°E)
Time: 00:42:57
(UTC+00:00)

Daily predictions for brighter satellites

Satellite Brightness Start Highest point End
(mag) Time Altitude Azimuth Time Altitude Azimuth Time Altitude Azimuth
CZ-2D R/B 4.0 00:22:12 21° SSW 00:22:12 21° SSW 00:23:56 10° SSW
Cosmos 2227 Rocket 3.8 00:21:02 28° E 00:21:02 28° E 00:25:14 10° SE
ATLAS 2AS CENTAUR R/B 3.5 00:28:39 41° SSW 00:28:39 41° SSW 00:34:19 10° SSE
H-2A R/B 3.2 00:33:08 39° SE 00:33:08 39° SE 00:37:14 10° S
ACS3 Solar Sail 2.7 00:40:58 26° NE 00:44:02 45° ESE 00:49:55 10° S
ADEOS II 3.6 00:47:22 26° SSW 00:47:22 26° SSW 00:49:41 10° SSW
Meteor 2-10 Rocket 4.2 00:47:54 49° SSE 00:47:54 49° SSE 00:51:39 10° S
Resurs 1-4 Rocket 4.4 00:56:53 13° SW 00:56:53 13° SW 00:57:32 10° SW
USA 59 Rocket 3.1 00:49:10 10° SW 00:51:45 19° WSW 00:51:45 19° WSW
Tiangong 1.1 01:00:30 15° SE 01:00:30 15° SE 01:01:11 10° SE
COSMOS 2428 2.7 00:54:12 10° SSW 00:59:58 81° ESE 01:00:02 80° E
Palapa 6 Rocket 4.2 01:03:49 59° N 01:03:49 59° N 01:10:02 10° ENE
Cosmos 2263 Rocket 3.2 01:04:42 32° NE 01:06:22 40° ENE 01:11:40 10° SE
Cosmos 2322 4.0 01:01:46 10° SSW 01:06:12 53° SW 01:06:12 53° SW
Meteor 2-19 Rocket 4.4 01:03:07 10° S 01:09:14 79° E 01:11:07 47° NNE
Cosmos 1666 Rocket 4.0 01:11:21 57° ESE 01:11:21 57° ESE 01:15:12 10° SSE
ARGOS 4.1 01:09:17 10° NNE 01:14:27 48° ESE 01:19:40 10° S
ADEOS Rocket 3.5 01:12:44 37° N 01:16:09 73° WNW 01:23:56 10° SSW
Cosmos 2297 Rocket 3.4 01:17:55 28° SW 01:17:55 28° SW 01:22:00 10° S
CZ-2C R/B 3.4 01:19:04 10° NNE 01:24:00 49° ESE 01:28:55 10° S
Atlas Centaur 2 2.9 01:20:40 31° WSW 01:25:10 89° SSE 01:32:41 10° ENE
Cosmos 1821 Rocket 3.9 01:28:09 46° NNW 01:30:07 73° W 01:36:34 10° S
Cosmos 2366 rocket 4.5 01:33:00 39° W 01:33:08 39° W 01:38:56 10° SSW
ATLAS 3B R/B 4.4 01:28:22 10° S 01:33:55 30° ESE 01:39:44 10° ENE
Cosmos 2237 Rocket 2.6 01:30:41 10° S 01:36:22 63° ESE 01:42:00 10° NNE
Cosmos 1680 Rocket 3.5 01:36:08 43° N 01:37:55 84° ENE 01:43:13 10° SSE
Cosmos 1953 3.8 01:36:44 17° NE 01:38:49 30° E 01:42:05 10° SSE
Cosmos 1470 Rocket 3.5 01:55:51 35° NNW 01:57:35 69° W 02:01:59 10° S
SL-08 RB Rocket 3.7 01:53:19 10° NNE 01:57:45 81° ESE 02:02:13 10° S
SL-08 R/B 4.4 01:54:34 14° N 01:59:58 85° W 02:06:16 10° S
Cosmos 724 4.4 01:59:39 19° NNW 02:03:52 73° ENE 02:09:36 10° SSE
Cosmos 2227 Rocket 3.2 02:02:51 24° W 02:04:18 27° WSW 02:09:05 10° S
Meteor 2-14 Rocket 4.4 01:59:25 10° S 02:05:39 85° W 02:11:48 10° N
Cosmos 44 4.3 02:04:17 27° W 02:05:55 33° WSW 02:10:28 10° S
Cosmos 1933 Rocket 4.2 02:01:42 10° N 02:05:59 57° E 02:10:21 10° SSE
Cosmos 1633 Rocket 4.0 02:09:52 27° W 02:10:26 27° W 02:14:14 10° SSW
SL-16 R/B 4.0 02:05:19 10° SE 02:10:56 35° E 02:16:30 10° NNE
H-2A R/B 3.9 02:13:38 13° WSW 02:13:38 13° WSW 02:14:42 10° WSW
Okean 1-7 3.0 02:11:03 10° SSW 02:15:08 54° W 02:19:10 10° N
Cosmos 1862 Rocket 4.0 02:11:13 10° SSW 02:15:23 41° W 02:18:17 17° NNW
Hubble Space Telescope 1.5 02:16:30 27° NW 02:17:10 29° NNW 02:20:30 10° NE
Cosmos 1809 Rocket 4.5 02:11:17 10° SSW 02:17:25 62° W 02:23:28 10° N
Cosmos 494 Rocket 4.1 02:14:51 19° NNW 02:18:34 59° WSW 02:23:46 10° S
Aureole 1 4.3 02:17:15 10° SSW 02:21:05 83° WNW 02:24:14 10° NNE
Meteor 1-15 Rocket 4.5 02:18:00 14° NNW 02:22:40 50° W 02:28:21 10° S
Meteor 2-8 Rocket 4.4 02:17:33 10° N 02:23:36 81° W 02:29:44 10° S
BREEZE-M DEB (TANK) 0.5 02:23:50 73° SE 02:23:50 73° SE 02:25:27 10° NE
SEDSat Delta rocket 2.9 02:22:14 16° W 02:25:28 59° NNW 02:29:28 10° ENE
CZ-4C R/B 4.2 02:17:14 10° N 02:25:59 49° ENE 02:33:58 10° SE
ACS3 Solar Sail 3.0 02:25:08 18° WNW 02:27:02 20° W 02:31:31 10° SW
Delta 128 3.5 02:24:24 19° WNW 02:27:47 86° N 02:32:18 10° E
Cosmos 1869 Rocket 3.8 02:24:53 10° N 02:29:14 72° E 02:33:42 10° S
Cosmos 2219 3.6 02:25:05 16° NW 02:29:27 47° WSW 02:35:01 10° S
ARIANE 6 FM1 Upper Stage 3.6 02:25:39 10° N 02:29:47 48° ENE 02:34:05 10° SE
Cosmos 2082 3.8 02:24:42 13° NNW 02:29:50 63° WSW 02:35:33 10° S
Cosmos 1934 Rocket 4.0 02:25:15 10° NNW 02:31:18 62° W 02:37:21 10° S
Cosmos 1939 Rocket 2.7 02:28:30 10° N 02:32:13 57° W 02:35:56 10° SSW
SL-16 R/B 3.3 02:28:57 10° S 02:34:29 50° ESE 02:39:59 10° NE
Tiangong 0.6 02:33:58 10° SW 02:35:18 12° SSW 02:36:38 10° S
CZ-4 R/B 3.9 02:34:40 10° NNE 02:39:21 83° ESE 02:44:02 10° S
Cosmos 2056 Rocket 4.0 02:37:43 10° S 02:42:59 68° ESE 02:48:16 10° NNE
NOAA 12 4.3 02:40:00 10° NNE 02:45:18 82° ESE 02:50:38 10° S
SJ-11-01 4.3 02:42:52 10° N 02:47:30 61° W 02:52:12 10° SSW
Cosmos 2263 Rocket 3.6 02:46:24 11° WNW 02:50:19 20° WSW 02:54:30 10° SSW
Cosmos 1844 Rocket 3.0 02:51:39 10° N 02:57:17 72° ENE 03:02:58 10° SSE
USA 229 DEB 3.4 02:53:45 10° SW 02:59:35 54° WNW 03:05:02 10° N
USA 229 3.4 02:53:57 10° SW 02:59:47 54° WNW 03:05:13 10° N
Delta 2 Rocket 3.1 02:58:06 10° W 03:01:02 47° SSW 03:04:02 10° SE
Cosmos 1371 Rocket 4.0 02:56:21 10° SSW 03:01:34 81° WNW 03:06:45 10° N
CZ-2C R/B 4.2 02:59:43 10° WNW 03:02:08 13° W 03:04:33 10° WSW
